Weather History for KIEN - July, 2013

Change the Weather History Date:

Tuesday, July 9, 2013

  Actual Average Record
Temperature  
Mean Temperature 71 °F 73 °F  
Max Temperature 87 °F 88 °F 100 °F (2005)
Min Temperature 55 °F 58 °F 48 °F (1999)
Degree Days  
Heating Degree Days 0 0  
Month to date heating degree days 0 4  
Since 1 June heating degree days 78 91  
Since 1 July heating degree days 0 4  
Cooling Degree Days 6 8  
Month to date cooling degree days 81 67  
Year to date cooling degree days 181 194  
Since 1 June cooling degree days 164 177  
Growing Degree Days 21 (Base 50)    
Moisture  
Dew Point 57 °F    
Average Humidity 67    
Maximum Humidity 100    
Minimum Humidity 34    
Precipitation  
Precipitation 0.00 in 0.08 in 0.31 in (2001)
Month to date precipitation 0.56 0.75  
Year to date precipitation 10.43 10.42  
Sea Level Pressure  
Sea Level Pressure 30.02 in    
Wind  
Wind Speed 5 mph (NNE)    
Max Wind Speed 13 mph    
Max Gust Speed 17 mph    
Visibility 10 miles    
Events      
T = Trace of Precipitation, MM = Missing Value Source: NWS Daily Summary

Daily Weather History Graph

Daily Weather History Graph

Search for Another Location

Airport or City:

Trip Planner

Search our weather history database for the weather conditions in past years. The results will help you decide how hot, cold, wet, or windy it might be!

Date:

Astronomy

Jul. 09, 2013 Rise Set
Actual Time 5:19 AM MDT 8:30 PM MDT
Civil Twilight 4:45 AM MDT 9:04 PM MDT
Nautical Twilight 4:00 AM MDT 9:49 PM MDT
Astronomical Twilight 3:06 AM MDT 10:42 PM MDT
Moon 6:49 AM MDT (7/9) 9:04 PM MDT (7/9)
Length of Visible Light 16h 19m
Length of Day
15h 10m
New Moon, 2% of the Moon is Illuminated
Jul 9
New Moon
Jul 15
First Quarter
Jul 22
Full
Jul 29
Last Quarter
Aug 6
New

Hourly Weather History & Observations

Time (MDT) Temp. Heat Index Dew Point Humidity Pressure Visibility Wind Dir Wind Speed Gust Speed Precip Events Conditions
12:52 AM 66.9 °F - 59.0 °F 76% 29.95 in 10.0 mi NNW 9.2 mph - N/A   Clear
1:52 AM 64.0 °F - 57.0 °F 78% 29.96 in 10.0 mi Variable 6.9 mph - N/A   Clear
2:52 AM 62.1 °F - 57.9 °F 86% 29.95 in 10.0 mi Calm Calm - N/A   Clear
3:52 AM 57.0 °F - 55.0 °F 93% 29.96 in 10.0 mi Calm Calm - N/A   Clear
4:52 AM 55.9 °F - 55.0 °F 97% 29.96 in 10.0 mi South 4.6 mph - N/A   Clear
5:52 AM 57.0 °F - 55.9 °F 96% 29.96 in 10.0 mi NNW 5.8 mph - N/A   Clear
6:52 AM 60.1 °F - 57.0 °F 90% 29.98 in 10.0 mi NW 6.9 mph - N/A   Clear
7:52 AM 64.0 °F - 57.9 °F 80% 30.02 in 10.0 mi WNW 4.6 mph - N/A   Clear
8:52 AM 68.0 °F - 59.0 °F 73% 30.01 in 10.0 mi West 6.9 mph - N/A   Clear
9:52 AM 72.0 °F - 60.1 °F 66% 30.03 in 10.0 mi Calm Calm - N/A   Clear
10:52 AM 77.0 °F - 61.0 °F 58% 30.03 in 10.0 mi WNW 5.8 mph - N/A   Clear
11:52 AM 82.0 °F 81.7 °F 57.0 °F 42% 30.02 in 10.0 mi Variable 6.9 mph - N/A   Clear
12:52 PM 84.0 °F 83.5 °F 57.9 °F 41% 30.01 in 10.0 mi NE 8.1 mph - N/A   Clear
1:52 PM 84.0 °F 83.3 °F 57.0 °F 40% 30.02 in 10.0 mi Variable 5.8 mph - N/A   Clear
2:52 PM 86.0 °F 84.9 °F 57.0 °F 37% 30.02 in 10.0 mi NNE 8.1 mph - N/A   Clear
3:52 PM 86.0 °F 84.7 °F 55.9 °F 36% 30.02 in 10.0 mi Variable 3.5 mph - N/A   Clear
4:52 PM 87.1 °F 85.7 °F 55.9 °F 35% 30.02 in 10.0 mi NE 6.9 mph - N/A   Clear
5:52 PM 84.9 °F 83.6 °F 55.0 °F 36% 30.02 in 10.0 mi NNE 4.6 mph - N/A   Clear
6:52 PM 84.0 °F 82.9 °F 55.0 °F 37% 30.03 in 10.0 mi NNE 4.6 mph - N/A   Clear
7:52 PM 79.0 °F - 57.0 °F 47% 30.04 in 10.0 mi NNE 6.9 mph - N/A   Clear
8:52 PM 72.0 °F - 57.9 °F 61% 30.07 in 10.0 mi East 4.6 mph - N/A   Clear
9:52 PM 68.0 °F - 57.0 °F 68% 30.09 in 10.0 mi ENE 6.9 mph - N/A   Clear
10:52 PM 64.9 °F - 59.0 °F 81% 30.09 in 10.0 mi ENE 5.8 mph - N/A   Clear
11:52 PM 64.0 °F - 59.0 °F 84% 30.10 in 10.0 mi ENE 4.6 mph - N/A   Clear